Regional Weather Roundup
Issued by NWS Goodland, KS

Home | Current Version | Previous Version | Graphics & Text | Print | Product List | Glossary On
Versions: 1 2 3 4 5 6 7 8 9 10 11 12 13 14 15 16 17 18 19 20 21 22 23 24 25 26 27 28 29 30 31 32 33 34 35 36 37 38 39 40 41 42 43 44 45 46 47 48 49 50
000
ASUS43 KGLD 280359
RWRGLD

GOODLAND FORECAST AREA HOURLY WEATHER ROUNDUP
NATIONAL WEATHER SERVICE GOODLAND KS
1000 PM MDT WED JUL 27 2016

...OFFICIAL OBSERVATIONS...

CITY           SKY/WX    TMP DP  RH WIND       PRES   REMARKS
GOODLAND KS    MOCLDY    74  65  73 SE10      30.12R
HILL CITY KS   CLEAR     77  67  71 NE10      30.06R
IMPERIAL NEB   CLOUDY    75  63  66 E10       30.12S
MCCOOK NEB     MOCLDY    75  68  78 E8        30.08R
AKRON CO       CLEAR     70  59  68 E13       30.17R
BURLINGTON CO  TSTM      69  62  78 SE15      30.16R
LIMON CO       LGT RAIN  72  60  66 SE13      30.23R
$$

...UNOFFICIAL OBSERVATIONS...

CITY           SKY/WX    TMP DP  RH WIND       PRES   REMARKS
COLBY KS       CLEAR     77  66  69 E7        30.13R
LENORA KS        N/A     76  32  20 MISG        N/A
NORTON KS      CLEAR     73  63  68 NE7       30.07R
SHARON SPRINGS   N/A     75  68  78 CALM        N/A
KIT CARSON CO    N/A     75  60  58 MISG        N/A
YUMA CO          N/A     72  62  69 E12         N/A
$$



USA.gov is the U.S. government's official web portal to all federal, state and local government web resources and services.